Find Starlink 33576

NORAD ID: 62775 Int'l Des: 2025-015 Owner: SPXS Country: US Constellation: starlink operational
LEOCIRCULAR

当前视图

正在加载3D地球...

About Starlink 33576

Starlink 33576 (NORAD 62775) is a starlink constellation satellite (v2 mini) launched Jan 21, 2025 by SPXS of US. It operates in LEO, CIRCULAR orbit with a mass of 575.00 kg.

即将过境

Passes for default location (London). Set your location on the main map for personalized predictions.

高度历史

Loading altitude history...

两行轨道根数

1 62775U 25015T 26263.87585678 .00017841 00000-0 53782-3 0 9992
2 62775 53.1593 131.6806 0001488 106.9468 253.1698 15.34404275 94366
Epoch: Sep 20, 2026 • Age: 22 hours

当前状态

高度 464.6 km
远地点 / 近地点 N/A
速度 7.64 km/s
星下点 34.13°N, 129.43°W
发射日期 Jan 21, 2025
运行时间 1.6 years
类型 internet

技术详情

分类 Payload
质量 575.00 kg
干质量 530.00 kg
长度 0.30 m
跨度 29.00 m
形状 ? Box + pan
制造商 SPXS
平台类型 Starlink V2MO
阶段状态 In Orbit
所有者/国家 SPXS/US

Most Searched